Regional Weather Roundup
Issued by NWS Spokane, WA

Home | Current Version | Previous Version | Text Only | Print | Product List | Glossary On
Versions: 1 2 3 4 5 6 7 8 9 10 11 12 13 14 15 16 17 18 19 20 21 22 23 24 25 26 27 28 29 30 31 32 33 34 35 36 37 38 39 40 41 42 43 44 45 46 47 48 49 50
066
NZUS01 KOTX 301405
RWROTX
EASTERN WASHINGTON/NORTHERN IDAHO ROUNDUP
NATIONAL WEATHER SERVICE, SPOKANE WA
700 AM PDT SAT JUL 30 2016

Note: "fair" indicated few or no clouds below 12,000 feet with no
significant weather and/or obstructions to visibility.

...NORTHEAST WASHINGTON AND NORTHERN IDAHO PANHANDLE...

CITY           SKY/WX    TMP DP  RH WIND       PRES   REMARKS
SPOKANE INTL   MOSUNNY   67  47  48 S13G22    29.77S
SPOKANE DOWNTO SUNNY     72  49  44 VRB7      29.78R
COEUR D ALENE  SUNNY     72  52  49 SE10      29.77R
DEER PARK      SUNNY     65  49  56 S9        29.78R
SANDPOINT      MOSUNNY   59  55  88 CALM      29.77R

...SOUTHEAST WASHINGTON AND SOUTHERN IDAHO PANHANDLE...

CITY           SKY/WX    TMP DP  RH WIND       PRES   REMARKS
WALLA WALLA    SUNNY     75  49  39 S8        29.80R
PULLMAN/MOSCOW SUNNY     70  52  52 W3        29.85R
LEWISTON       SUNNY     73  51  46 E3        29.78R
LOWELL           N/A     59  55  87 CALM      29.86R

...COLUMBIA BASIN...

CITY           SKY/WX    TMP DP  RH WIND       PRES   REMARKS
EPHRATA        SUNNY     77  42  28 VRB3      29.73R
MOSES LAKE     SUNNY     72  49  44 CALM      29.75R
TRI CITIES     SUNNY     75  54  47 CALM      29.75R
HERMISTON      SUNNY     76  52  43 SW10      29.78R
PENDLETON      SUNNY     73  46  38 S5        29.82S

...EAST SLOPES CASCADES...

CITY           SKY/WX    TMP DP  RH WIND       PRES   REMARKS
THE DALLES     SUNNY     70  52  52 NW8G22    29.82R
YAKIMA         SUNNY     72  52  49 CALM      29.78R
ELLENSBURG     SUNNY     71  52  50 NW18G25   29.81R
STAMPEDE PASS  CLOUDY    51  49  92 SW7       29.98R
WENATCHEE      SUNNY     73  49  42 NW7       29.76S
OMAK           SUNNY     72  47  40 CALM      29.74R

...SOUTHERN BRITISH COLUMBIA...

CITY           SKY/WX    TMP DP  RH WIND       PRES   REMARKS

...WESTERN MONTANA...

CITY           SKY/WX    TMP DP  RH WIND       PRES   REMARKS
MISSOULA       SUNNY     63  48  58 CALM      29.89S

...NEIGHBORING CITIES...

CITY           SKY/WX    TMP DP  RH WIND       PRES   REMARKS
SEATTLE        CLOUDY    57  55  93 SW8       29.96S



USA.gov is the U.S. government's official web portal to all federal, state and local government web resources and services.